Location: Be?i?
(36.9044°N, 30.1006°E)
Time: 12:02:40
(UTC+00:00)

Cosmos-2242 - Pass Details

Date: 05 August 2024
Orbit: 578 x 602 km, 82.5° (Epoch: 08 September)

Event Time Altitude Azimuth Distance (km) Brightness Sun altitude
Rises 19:31:06 0° 347° (NNW) 2,801 7.4 -25.2°
Reaches altitude 10° 19:33:19 10° 343° (NNW) 1,899 6.4 -25.5°
Enters shadow 19:37:12 54° 279° (W) 712 3.5 -26.0°
